TimeAST,TemperatureF,Dew PointF,Humidity,Sea Level PressureIn,VisibilityMPH,Wind Direction,Wind SpeedMPH,Gust SpeedMPH,PrecipitationIn,Events,Conditions,WindDirDegrees,DateUTC
12:00 AM,82.4,75.2,79,29.95,-9999.0,ESE,11.5,-,N/A,,Unknown,110,2012-10-03 04:00:00
1:00 AM,82.4,75.2,79,29.92,-9999.0,ESE,11.5,-,N/A,,Unknown,110,2012-10-03 05:00:00
2:00 AM,82,74,71,,,ESE,11.5,,,,Clear,110,2012-10-03 06:00:00
2:00 AM,82.4,73.4,74,29.89,-9999.0,ESE,11.5,-,N/A,,Unknown,110,2012-10-03 06:00:00
3:00 AM,82.4,75.2,79,29.89,-9999.0,ESE,11.5,-,N/A,,Unknown,110,2012-10-03 07:00:00
4:00 AM,82.4,73.4,74,29.89,-9999.0,ESE,11.5,-,N/A,,Unknown,110,2012-10-03 08:00:00
5:00 AM,81,72,69,,,ESE,11.5,,,,Clear,110,2012-10-03 09:00:00
5:00 AM,80.6,71.6,74,29.89,-9999.0,ESE,11.5,-,N/A,,Unknown,110,2012-10-03 09:00:00
7:00 AM,82.4,75.2,79,29.92,6.2,East,10.4,-,N/A,,Partly Cloudy,100,2012-10-03 11:00:00
8:00 AM,85,76,67,29.98,22,East,15.0,,,,Partly Cloudy,100,2012-10-03 12:00:00
8:00 AM,84.2,75.2,74,29.95,6.2,East,15.0,-,N/A,,Scattered Clouds,100,2012-10-03 12:00:00
9:00 AM,87.8,77.0,70,29.98,6.2,East,17.3,-,N/A,,Scattered Clouds,100,2012-10-03 13:00:00
10:00 AM,87.8,77.0,70,29.98,6.2,East,17.3,-,N/A,,Scattered Clouds,100,2012-10-03 14:00:00
11:00 AM,88,76,59,30.00,22,East,15.0,,,,Partly Cloudy,100,2012-10-03 15:00:00
11:00 AM,87.8,75.2,66,29.98,6.2,East,15.0,-,N/A,,Scattered Clouds,100,2012-10-03 15:00:00
12:00 PM,89.6,77.0,66,29.95,-9999.0,North,-9999.0,-,N/A,,Unknown,0,2012-10-03 16:00:00
1:00 PM,89.6,75.2,62,29.92,6.2,East,17.3,-,N/A,,Scattered Clouds,100,2012-10-03 17:00:00
2:00 PM,89,74,53,,6,ESE,11.5,,,,Clear,110,2012-10-03 18:00:00
2:00 PM,89.6,75.2,62,29.89,-9999.0,ESE,11.5,-,N/A,,Unknown,110,2012-10-03 18:00:00
3:00 PM,87.8,75.2,66,29.89,6.2,East,17.3,-,N/A,,Scattered Clouds,100,2012-10-03 19:00:00
5:00 PM,86.0,75.2,70,29.89,6.2,East,16.1,-,N/A,,Scattered Clouds,90,2012-10-03 21:00:00
6:00 PM,86.0,77.0,74,29.89,6.2,East,12.7,-,N/A,,Scattered Clouds,90,2012-10-03 22:00:00
7:00 PM,84.2,75.2,74,29.89,-9999.0,ESE,11.5,-,N/A,,Unknown,110,2012-10-03 23:00:00
8:00 PM,84.2,75.2,74,29.89,6.2,East,12.7,-,N/A,,Partly Cloudy,80,2012-10-04 00:00:00
9:00 PM,82.4,77.0,84,29.92,-9999.0,ESE,11.5,-,N/A,,Unknown,110,2012-10-04 01:00:00
11:00 PM,83,76,74,,6,ESE,11.5,,,,Clear,110,2012-10-04 03:00:00
11:00 PM,82.4,77.0,84,29.95,-9999.0,North,-9999.0,-,N/A,,Unknown,0,2012-10-04 03:00:00